sat.trackr.live / text

‹ back to catalog

STARLINK-30882

NORAD 58379 · 2023-178F

PAYLOAD ACTIVE UNKNOWN

§ Identity

Operator
Country
US
Launch date
2023-11-20
Launch site
AFWTR
Launch vehicle
Mass (kg)
RCS (m²)

Purposes: comms

External: N2YO · Heavens-Above · Gunter

§ Orbital elements

Epoch: 2026-09-20T00:28:46.050816Z

Period
93.85 min
Inclination
53.1593°
Eccentricity
0.0001054
Mean motion
15.34391365 rev/d
Perigee alt
462.0 km
Apogee alt
463.4 km
Semi-major
6,840.9 km
B*
4.6873e-5
RAAN
174.2220°
Arg perigee
110.0432°
Mean anomaly
250.0684°
Rev number
15,970

§ Raw data

STARLINK-308821 58379U 23178F   26263.01997744  .00001207  00000+0  46873-4 0  99942 58379  53.1593 174.2220 0001054 110.0432 250.0684 15.34391365159706

JSON: /api/v1/satellites/58379 · /tle

For live sub-satellite position, see the globe view (requires WebGL).

§ Visibility from observer

Set your observer location to see the next 7 days of passes ≥ 10°. The values pass through the URL so the page stays shareable.

No JS? Fill the form by hand. The geolocation button needs JavaScript.